Location: Iesi
(43.5167°N, 13.2333°E)
Time: 23:14:39
(UTC+00:00)

N. Korean satellite - Visible Passes

Search period start: 19 October 2020 00:00
Search period end: 29 October 2020 00:00
Orbit: 453 x 504 km, 97.2° (Epoch: 18 October)

Date Brightness Start Highest point End Pass type
(mag) Time Alt. Az. Time Alt. Az. Time Alt. Az.
19 Oct 8.3 04:15:35 10° NNE 04:18:47 35° E 04:21:56 10° SSE visible
20 Oct 9.7 03:50:14 10° NE 03:52:32 17° E 03:54:50 10° SE visible
21 Oct 6.4 04:56:32 10° N 04:59:57 60° WNW 05:03:18 10° SSW visible
22 Oct 7.2 04:30:27 10° NNE 04:33:51 57° E 04:37:12 10° S visible
22 Oct 9.8 16:40:28 10° SW 16:43:13 20° W 16:45:58 10° NW visible
23 Oct 8.9 04:04:44 10° NE 04:07:39 25° E 04:10:32 10° SSE visible
24 Oct 10.0 03:39:50 10° ENE 03:41:22 12° E 03:42:52 10° ESE visible
25 Oct 6.4 04:45:24 10° N 04:48:51 86° WNW 04:52:15 10° SSW visible
25 Oct 10.1 16:56:31 10° WSW 16:58:21 13° W 17:00:11 10° WNW visible
26 Oct 7.9 04:19:27 10° NNE 04:22:42 40° E 04:25:56 10° S visible
27 Oct 9.5 03:53:57 10° NE 03:56:27 19° E 03:58:57 10° SE visible
28 Oct 6.6 05:00:27 10° N 05:03:47 52° WNW 05:07:07 10° SSW visible
